This demonstration page uses our WeatherBlox Daily Observations layout. Learn more.

38.89511, -77.03637

Hourly Observations for April 3, 2015

Temp ( °F °C ) Dew Point ( °F °C ) Humidity (%) Winds ( mph kmh ) Pressure ( in mb ) Visibility ( mi km ) Precip ( " mm )
12:52 am 00:52 Mostly Cloudy 66 19 41 5 40 40 SSW 17 28 29.94 1014 10 16.09344 0 0
1:04 am 01:04 Mostly Cloudy 66 19 41 5 40 40 SSW 18 30 29.94 1014 10 16.09344 0 0
1:52 am 01:52 Mostly Cloudy 66 19 43 6 43 43 SSW 17 28 29.94 1014 10 16.09344 0 0
2:52 am 02:52 Mostly Cloudy 66 19 45 7 46 46 SSW 22 35 29.91 1013 10 16.09344 0 0
3:52 am 03:52 Cloudy 66 19 46 8 49 49 SSW 18 30 29.91 1013 10 16.09344 0 0
4:52 am 04:52 Cloudy 66 19 48 9 52 52 SSW 16 26 29.91 1013 10 16.09344 0 0
5:52 am 05:52 Mostly Cloudy 66 19 52 11 60 60 SSW 17 28 29.91 1013 10 16.09344 0 0
6:52 am 06:52 Cloudy 64 18 52 11 64 64 SSW 18 30 29.91 1013 10 16.09344 0 0
7:52 am 07:52 Cloudy 66 19 54 12 64 64 SSW 12 19 29.94 1014 10 16.09344 0 0
8:07 am 08:07 Cloudy with Light Rain 66 19 54 12 64 64 SSW 13 20 29.94 1014 10 16.09344 0.001 0.001
8:52 am 08:52 Cloudy with Light Rain 63 17 57 14 83 83 SW 12 19 29.94 1014 5 8.04672 0.02 0.508
9:52 am 09:52 Cloudy with Light Rain 63 17 57 14 83 83 SSW 8 13 29.94 1014 5 8.04672 0.05 1.27
10:48 am 10:48 Cloudy with Light Rain 63 17 55 13 77 77 SSW 13 20 29.91 1013 5 8.04672 0 0
10:52 am 10:52 Cloudy with Light Rain 63 17 59 15 88 88 S 7 11 29.94 1014 7 11.265408 0.04 1.016
11:24 am 11:24 Cloudy with Light Rain 61 16 57 14 88 88 S 10 17 29.91 1013 6 9.656064 0 0
11:52 am 11:52 Cloudy with Light Rain 63 17 57 14 83 83 S 12 19 29.88 1012 6 9.656064 0.01 0.254
12:52 pm 12:52 Cloudy 66 19 61 16 83 83 SW 7 11 29.88 1012 10 16.09344 0.02 0.508
1:05 pm 13:05 Cloudy with Light Rain 66 19 61 16 83 83 WSW 7 11 29.88 1012 10 16.09344 0.001 0.001
1:52 pm 13:52 Cloudy with Light Rain 68 20 61 16 78 78 SW 3 6 29.85 1011 8 12.874752 0.01 0.254
2:52 pm 14:52 Cloudy with Light Rain 66 19 63 17 88 88 Calm 29.83 1010 7 11.265408 0.04 1.016
3:52 pm 15:52 Cloudy 64 18 61 16 88 88 S 7 11 29.8 1009 10 16.09344 0.001 0.001
4:52 pm 16:52 Cloudy 72 22 61 16 69 69 SW 12 19 29.77 1008 10 16.09344 0 0
5:52 pm 17:52 Cloudy 72 22 61 16 69 69 SSW 9 15 29.77 1008 10 16.09344 0.001 0.001
6:52 pm 18:52 Cloudy 66 19 57 14 73 73 S 9 15 29.74 1007 10 16.09344 0 0
7:52 pm 19:52 Cloudy 73 23 57 14 57 57 SW 13 20 29.74 1007 10 16.09344 0.001 0.001
8:52 pm 20:52 Cloudy 72 22 55 13 57 57 SW 10 17 29.71 1006 10 16.09344 0 0
9:52 pm 21:52 Cloudy 66 19 55 13 68 68 SSW 5 7 29.71 1006 10 16.09344 0 0
10:52 pm 22:52 Cloudy 70 21 55 13 60 60 SSW 17 28 29.68 1005 10 16.09344 0 0
11:24 pm 23:24 Cloudy 72 22 54 12 53 53 SW 26 43 29.68 1005 10 16.09344 0 0
11:52 pm 23:52 Cloudy with Light Rain 70 21 55 13 60 60 SW 24 39 29.68 1005 10 16.09344 0.001 0.001

Powered by AerisWeather